Starlink 34252

operational
NORAD ID: 64330 Int'l Des: 2025-124 Owner: SPXS Country: US Constellation: starlink
LEOCIRCULAR

关于 Starlink 34252

正在加载描述...

实时位置

正在加载3D地球...

即将过境

高度历史

Altitude vs Time

uPlot chart will show altitude changes over time

两行轨道根数

1 64330U 25124P 26095.07469987 .00026451 00000-0 96557-3 0 9995
2 64330 43.0012 332.8812 0001317 274.1432 85.9269 15.27639062 45818
Epoch: Apr 5, 2026 • Age: 13 hours

当前状态

高度 485.6 km
速度 7.63 km/s
星下点 37.68°N, 37.61°E
发射日期 Jun 10, 2025
运行时间 0.8 years
类型 internet

技术详情

分类 Payload
质量 575.00 kg
干质量 530.00 kg
总质量 575.00 kg
长度 0.30 m
直径 4.10 m
跨度 29.00 m
形状 Box + pan
制造商 SPXS
平台类型 Starlink V2MO
阶段状态 In Orbit
所有者/国家 SPXS/US

大型星座

Loading constellations...